Regional Weather Roundup
Issued by NWS Green Bay, WI

Home | Current Version | Previous Version | Graphics & Text | Print | Product List | Glossary Off
Versions: 1 2 3 4 5 6 7 8 9 10 11 12 13 14 15 16 17 18 19 20 21 22 23 24 25 26 27 28 29 30 31 32 33 34 35 36 37 38 39 40 41 42 43 44 45 46 47 48 49 50

000
ASUS43 KGRB 031610
RWRGRB

NORTH-CENTRAL AND NORTHEAST WISCONSIN REGIONAL WEATHER ROUNDUP
NATIONAL WEATHER SERVICE GREEN BAY WI
1000 AM CST TUE MAR 03 2015

WIZ005-009-010>012-018-019-031700-
NORTH CENTRAL WISCONSIN

CITY           SKY/WX    TMP DP  RH WIND       PRES   REMARKS
IRONWOOD       CLOUDY    19  16  86 S9        29.61F VSB 1/2 WCI   9
MANITOWISH WTR SNOW      18  16  90 S8        29.63F VSB 1/2 WCI   8
ARBOR VITAE    SNOW      20  17  87 S6        29.63F VSB 1/2
EAGLE RIVER    SNOW      19  15  84 S5        29.64F VSB 1/2
LAND O LAKES   SNOW      20  16  86 S3        29.64F VSB 1/2
RHINELANDER    SNOW      19  16  88 S7        29.63F VSB 1/4 WCI  10
PHILLIPS       LGT SNOW  19  16  89 S7        29.64F VSB 1   WCI  10
ANTIGO         LGT SNOW  19  17  92 S6        29.64F
TOMAHAWK       HVY SNOW  20  17  87 CALM      29.65F VSB 1/4
MERRILL        SNOW      21  19  91 CALM      29.66F VSB 1/4
$$

WIZ013-073-031700-
NORTHEAST WISCONSIN

CITY           SKY/WX    TMP DP  RH WIND       PRES   REMARKS
IRON MOUNTAIN  SNOW      21  18  88 S3        29.67F VSB 1/2
MARINETTE      CLOUDY    27  25  93 S9G17     29.70F
OCONTO         CLOUDY    27  26  99 S8        29.70F VSB 1/2
$$

WIZ017-030-035>037-045-031700-
CENTRAL WISCONSIN

CITY           SKY/WX    TMP DP  RH WIND       PRES   REMARKS
MEDFORD        MIX PCPN  20  17  89 S5        29.64F VSB 1/2
WAUSAU         LGT SNOW  21  19  92 S8        29.65F FOG
MOSINEE        CLOUDY    21  21 100 S7        29.67F
MARSHFIELD     LGT SNOW  22  19  89 S9        29.65F FOG
WISC RAPIDS    CLOUDY    22  19  89 S6        29.68F FOG
STEVENS POINT  CLOUDY    21  19  93 S3        29.66F FOG
WAUPACA        MIX PCPN  27  23  85 S6        29.69F
SHAWANO        MIX PCPN  27  23  86 CALM      29.70F
CLINTONVILLE   LGT SNOW  27  23  86 S6        29.69F
$$

WIZ038-039-048-051-031700-
FOX VALLEY

CITY           SKY/WX    TMP DP  RH WIND       PRES   REMARKS
NWS GREEN BAY  CLOUDY    26  24  92 S9        29.69F FOG
APPLETON       LGT SNOW  25  23  93 S9        29.69F
OSHKOSH        SNOW      26  23  88 S9        29.68F VSB 1/2
FOND DU LAC    SNOW      26  23  88 S9        29.68F VSB 1/2
$$

WIZ022-050-052-031700-
EAST CENTRAL WISCONSIN

CITY           SKY/WX    TMP DP  RH WIND       PRES   REMARKS
STURGEON BAY   CLOUDY    28  25  86 S15G21    29.72F
MANITOWOC      LGT SNOW  29  27  92 S16G26    29.70F VSB 3/4
SHEBOYGAN      SNOW      28  25  88 S16G25    29.70F VSB 1/2
$$

LMZ563-521-522-541>543-031700-
LAKESHORE

STATION/POSITION TIME  TEMP    WIND        PRES    VSBY  WAVE
                       AIR SEA DIR/SP/G                  HT/PER
                 (UTC) (F)     (DEG/KT/KT) (MB)    (MI)  (FT/S)
SHEBOYGAN LKSHOR 1600   28     160/ 27/ 31 1006.3F
KEWAUNEE LKSHORE 1600   29     170/ 23/ 28   N/A
TWO RIVERS CG    1600   28                 1006.3   1 1/4  3
NORTHPORT PIER   1600   26     150/ 13/ 19 1007.5F
SISTER BAY LKSHO 1500   28     190/ 17/ 22   N/A
STURGEON BAY CG  1600   28     180/ 17     1007.3    5/8   3
CHAMBERS ISLAND  1600   27     150/  6/ 13 1007.1F
MENOMINEE LKSHOR 1600   27     170/ 12       N/A
$$



USA.gov is the U.S. government's official web portal to all federal, state and local government web resources and services.